SV1IW Athens current weather conditions

sailwx.info

Wind from 047 at 2 knots gusting 4

Air temperature 11.7° C
Dewpoint 8.5° C

Last reported at 2015-Jan-29 23:30 UTC.
Time now 2015-Jan-30 15:33 UTC

Location: N 37°58' E 023°43'.
View on Google Maps.

See reports from other nearby stations

  
Tides and Currents Weather Stations Pressure Air Temp Water Temp Dewpoint Dewpoint Depression Visibility Wind Speed Wind Dir Waves Ship Positions
date/time (UTC)wind fromknots sea level pressurealtimeterstation pressurevisibilityair tempwater tempwave heightnotes
2015-Jan-29 23:30 047 2 gusting 4 11.7
2015-Jan-29 23:00 254 11.7
2015-Jan-29 22:30 255 11.7
2015-Jan-29 22:00 222 11.7
2015-Jan-29 21:30 222 0 gusting 4 11.7
2015-Jan-29 21:00 307 0 gusting 2 11.7
2015-Jan-29 20:30 012 12.2
2015-Jan-29 20:00 024 12.2
2015-Jan-29 19:30 341 2 gusting 5 12.2
2015-Jan-29 19:00 356 1 gusting 5 12.2
2015-Jan-29 18:30 11.7
2015-Jan-29 18:00 338 0 gusting 5 12.2
2015-Jan-29 17:30 351 1 gusting 10 12.2
2015-Jan-29 17:00 357 5 gusting 10 12.8
2015-Jan-29 16:30 356 6 gusting 10 12.8
2015-Jan-29 16:00 026 4 gusting 7 13.3
2015-Jan-29 15:30 009 4 gusting 10 13.3
2015-Jan-29 15:00 356 5 gusting 8 13.9
2015-Jan-29 14:30 351 3 gusting 6 13.9
2015-Jan-29 14:00 359 4 gusting 5 13.9
2015-Jan-29 13:30 346 2 gusting 5 12.8
2015-Jan-29 13:00 069 2 gusting 5 12.8